| time (UTC) | temp F | wind direction | speed MPH | gust MPH | rain 1hr in | rain 24hr in | rain mn in | humidity % | barometer mb |
| 20260509223858 | 66 | 212 | 7.0 | 16.0 | 0.00 | 0.14 | 0.13 | 54 | 1004.3 |
| 20260509223352 | 66 | 217 | 8.0 | 16.0 | 0.00 | 0.14 | 0.13 | 55 | 1004.3 |
| 20260509222846 | 66 | 210 | 7.0 | 14.0 | 0.00 | 0.14 | 0.13 | 55 | 1004.2 |
| 20260509222337 | 66 | 210 | 6.0 | 14.0 | 0.00 | 0.14 | 0.13 | 56 | 1004.2 |
| 20260509221830 | 66 | 206 | 6.0 | 16.0 | 0.00 | 0.14 | 0.13 | 56 | 1004.2 |
| 20260509221324 | 66 | 217 | 7.0 | 16.0 | 0.00 | 0.14 | 0.13 | 56 | 1004.6 |
| 20260509215805 | 67 | 208 | 7.0 | 14.0 | 0.00 | 0.14 | 0.13 | 54 | 1004.5 |
| 20260509214802 | 68 | 208 | 7.0 | 14.0 | 0.00 | 0.14 | 0.13 | 53 | 1004.6 |
| 20260509214301 | 68 | 236 | 8.0 | 14.0 | 0.00 | 0.14 | 0.13 | 53 | 1004.6 |
| 20260509213753 | 68 | 241 | 6.0 | 14.0 | 0.00 | 0.14 | 0.13 | 53 | 1004.5 |
| 20260509213252 | 68 | 229 | 4.0 | 11.0 | 0.00 | 0.14 | 0.13 | 56 | 1004.5 |
| 20260509212249 | 67 | 208 | 8.0 | 17.0 | 0.00 | 0.14 | 0.13 | 56 | 1004.6 |
| 20260509211748 | 67 | 217 | 8.0 | 15.0 | 0.00 | 0.14 | 0.13 | 55 | 1004.6 |
| 20260509211250 | 67 | 214 | 8.0 | 17.0 | 0.00 | 0.14 | 0.13 | 57 | 1004.6 |
| 20260509210742 | 67 | 200 | 7.0 | 17.0 | 0.00 | 0.14 | 0.13 | 56 | 1004.6 |
| 20260509210244 | 67 | 195 | 5.0 | 11.0 | 0.00 | 0.14 | 0.13 | 58 | 1004.6 |
| 20260509205740 | 66 | 203 | 5.0 | 15.0 | 0.00 | 0.14 | 0.13 | 59 | 1005.0 |
| 20260509205231 | 66 | 202 | 6.0 | 15.0 | 0.00 | 0.14 | 0.13 | 60 | 1005.0 |
| 20260509204728 | 66 | 205 | 6.0 | 14.0 | 0.00 | 0.14 | 0.13 | 58 | 1005.0 |
| 20260509204232 | 66 | 210 | 7.0 | 14.0 | 0.00 | 0.14 | 0.13 | 59 | 1005.0 |
| 20260509203731 | 66 | 246 | 6.0 | 11.0 | 0.00 | 0.14 | 0.13 | 61 | 1005.0 |
| 20260509203226 | 66 | 191 | 5.0 | 11.0 | 0.00 | 0.14 | 0.13 | 61 | 1005.0 |
| 20260509202728 | 66 | 187 | 4.0 | 10.0 | 0.00 | 0.14 | 0.13 | 60 | 1005.1 |
| 20260509201726 | 66 | 267 | 8.0 | 17.0 | 0.00 | 0.14 | 0.13 | 63 | 1005.1 |
| 20260509201223 | 66 | 203 | 6.0 | 13.0 | 0.00 | 0.14 | 0.13 | 63 | 1005.2 |
| 20260509200212 | 66 | 248 | 6.0 | 14.0 | 0.00 | 0.14 | 0.13 | 61 | 1005.2 |
| 20260509195705 | 66 | 250 | 6.0 | 14.0 | 0.00 | 0.14 | 0.13 | 62 | 1005.5 |
| 20260509195200 | 65 | 257 | 8.0 | 14.0 | 0.00 | 0.14 | 0.13 | 63 | 1005.5 |
| 20260509194655 | 65 | 257 | 7.0 | 14.0 | 0.00 | 0.14 | 0.13 | 64 | 1005.4 |
| 20260509194144 | 64 | 234 | 8.0 | 14.0 | 0.00 | 0.14 | 0.13 | 66 | 1005.6 |
| 20260509193641 | 64 | 227 | 6.0 | 14.0 | 0.00 | 0.14 | 0.13 | 65 | 1005.6 |
| 20260509193131 | 64 | 202 | 5.0 | 12.0 | 0.00 | 0.14 | 0.13 | 67 | 1005.6 |
| 20260509192623 | 64 | 201 | 7.0 | 12.0 | 0.00 | 0.14 | 0.13 | 69 | 1005.6 |
| 20260509192111 | 63 | 208 | 7.0 | 12.0 | 0.00 | 0.14 | 0.13 | 70 | 1005.6 |
| 20260509191605 | 63 | 210 | 8.0 | 18.0 | 0.00 | 0.14 | 0.13 | 71 | 1005.6 |
| 20260509191056 | 63 | 220 | 8.0 | 18.0 | 0.00 | 0.14 | 0.13 | 70 | 1006.2 |
| 20260509190554 | 63 | 240 | 6.0 | 15.0 | 0.00 | 0.14 | 0.13 | 71 | 1006.2 |
| 20260509190047 | 63 | 210 | 5.0 | 13.0 | 0.00 | 0.14 | 0.13 | 73 | 1006.2 |
| 20260509185545 | 62 | 211 | 7.0 | 14.0 | 0.00 | 0.14 | 0.13 | 73 | 1006.2 |
| 20260509185046 | 62 | 207 | 6.0 | 14.0 | 0.00 | 0.14 | 0.13 | 75 | 1006.2 |
| 20260509184544 | 62 | 217 | 5.0 | 11.0 | 0.00 | 0.14 | 0.13 | 74 | 1006.2 |
| 20260509184033 | 62 | 217 | 5.0 | 12.0 | 0.00 | 0.14 | 0.13 | 75 | 1006.3 |
| 20260509183531 | 62 | 217 | 6.0 | 12.0 | 0.00 | 0.14 | 0.13 | 75 | 1006.3 |
| 20260509183033 | 61 | 218 | 6.0 | 13.0 | 0.00 | 0.14 | 0.13 | 76 | 1006.3 |
| 20260509182530 | 61 | 215 | 6.0 | 13.0 | 0.00 | 0.14 | 0.13 | 76 | 1006.3 |
| 20260509182030 | 61 | 212 | 6.0 | 11.0 | 0.00 | 0.14 | 0.13 | 77 | 1006.3 |
| 20260509181531 | 60 | 212 | 6.0 | 15.0 | 0.00 | 0.14 | 0.13 | 76 | 1006.3 |
| 20260509181034 | 60 | 207 | 7.0 | 15.0 | 0.00 | 0.14 | 0.13 | 78 | 1006.3 |
| 20260509180524 | 60 | 212 | 7.0 | 13.0 | 0.00 | 0.14 | 0.13 | 78 | 1006.3 |
| 20260509180022 | 60 | 217 | 5.0 | 11.0 | 0.00 | 0.14 | 0.13 | 80 | 1006.3 |
| 20260509175521 | 60 | 216 | 5.0 | 13.0 | 0.00 | 0.14 | 0.13 | 81 | 1006.3 |
| 20260509175017 | 60 | 216 | 6.0 | 13.0 | 0.00 | 0.14 | 0.13 | 82 | 1006.3 |
| 20260509174513 | 59 | 212 | 5.0 | 12.0 | 0.00 | 0.14 | 0.13 | 83 | 1006.3 |
| 20260509174011 | 59 | 213 | 6.0 | 12.0 | 0.00 | 0.14 | 0.13 | 83 | 1006.3 |
| 20260509173509 | 59 | 213 | 5.0 | 12.0 | 0.00 | 0.14 | 0.13 | 83 | 1006.3 |
| 20260509173004 | 59 | 222 | 5.0 | 10.0 | 0.00 | 0.14 | 0.13 | 84 | 1006.1 |
| 20260509172508 | 58 | 222 | 4.0 | 10.0 | 0.00 | 0.14 | 0.13 | 85 | 1006.1 |
| 20260509171955 | 58 | 222 | 4.0 | 11.0 | 0.00 | 0.14 | 0.13 | 86 | 1006.1 |
| 20260509171439 | 58 | 222 | 5.0 | 12.0 | 0.00 | 0.14 | 0.13 | 86 | 1006.0 |
| 20260509170938 | 58 | 222 | 5.0 | 12.0 | 0.00 | 0.14 | 0.13 | 87 | 1006.0 |
| 20260509170427 | 58 | 224 | 7.0 | 15.0 | 0.00 | 0.14 | 0.13 | 88 | 1006.0 |
| 20260509165927 | 58 | 227 | 7.0 | 15.0 | 0.00 | 0.14 | 0.13 | 88 | 1006.0 |
| 20260509165427 | 58 | 224 | 6.0 | 13.0 | 0.00 | 0.14 | 0.13 | 89 | 1006.0 |
| 20260509164929 | 58 | 221 | 5.0 | 11.0 | 0.00 | 0.14 | 0.13 | 90 | 1006.0 |
| 20260509164427 | 57 | 210 | 5.0 | 11.0 | 0.00 | 0.14 | 0.13 | 91 | 1006.0 |
| 20260509163926 | 57 | 210 | 6.0 | 11.0 | 0.00 | 0.14 | 0.13 | 92 | 1006.0 |
| 20260509162924 | 57 | 212 | 5.0 | 10.0 | 0.00 | 0.14 | 0.13 | 94 | 1005.7 |
| 20260509162411 | 57 | 214 | 5.0 | 10.0 | 0.00 | 0.14 | 0.13 | 96 | 1005.9 |
| 20260509161900 | 57 | 214 | 5.0 | 10.0 | 0.00 | 0.14 | 0.13 | 97 | 1005.7 |
| 20260509161353 | 56 | 215 | 4.0 | 10.0 | 0.00 | 0.14 | 0.13 | 98 | 1005.9 |
| 20260509160854 | 56 | 215 | 4.0 | 9.0 | 0.00 | 0.14 | 0.13 | 98 | 1005.9 |
| 20260509160351 | 56 | 215 | 4.0 | 6.0 | 0.00 | 0.14 | 0.13 | 98 | 1005.9 |
| 20260509155350 | 55 | 215 | 3.0 | 10.0 | 0.00 | 0.14 | 0.13 | 98 | 1005.7 |
| 20260509154843 | 55 | 215 | 3.0 | 7.0 | 0.00 | 0.14 | 0.13 | 98 | 1005.7 |
| 20260509154340 | 55 | 215 | 3.0 | 7.0 | 0.01 | 0.14 | 0.13 | 98 | 1005.6 |
| 20260509153842 | 55 | 212 | 3.0 | 7.0 | 0.01 | 0.14 | 0.13 | 98 | 1005.6 |
| 20260509153337 | 55 | 210 | 3.0 | 7.0 | 0.02 | 0.14 | 0.13 | 98 | 1005.6 |
| 20260509152331 | 54 | 206 | 3.0 | 6.0 | 0.02 | 0.14 | 0.13 | 98 | 1005.2 |
| 20260509151831 | 54 | 206 | 3.0 | 7.0 | 0.02 | 0.14 | 0.13 | 98 | 1005.1 |
| 20260509151332 | 53 | 206 | 4.0 | 9.0 | 0.02 | 0.14 | 0.13 | 98 | 1005.1 |
| 20260509150831 | 53 | 206 | 3.0 | 9.0 | 0.02 | 0.14 | 0.13 | 98 | 1005.1 |
| 20260509150330 | 53 | 207 | 3.0 | 7.0 | 0.03 | 0.14 | 0.13 | 98 | 1005.1 |
| 20260509145819 | 53 | 207 | 4.0 | 12.0 | 0.03 | 0.14 | 0.13 | 98 | 1005.5 |
| 20260509145316 | 53 | 207 | 4.0 | 12.0 | 0.03 | 0.14 | 0.13 | 98 | 1005.5 |
| 20260509144818 | 53 | 208 | 4.0 | 10.0 | 0.02 | 0.13 | 0.13 | 98 | 1005.5 |
| 20260509143813 | 53 | 208 | 5.0 | 11.0 | 0.02 | 0.13 | 0.12 | 98 | 1005.6 |
| 20260509143302 | 53 | 210 | 4.0 | 10.0 | 0.02 | 0.12 | 0.11 | 98 | 1005.6 |
| 20260509142757 | 53 | 210 | 4.0 | 7.0 | 0.02 | 0.12 | 0.11 | 98 | 1005.6 |
| 20260509141746 | 53 | 210 | 3.0 | 7.0 | 0.02 | 0.12 | 0.11 | 98 | 1005.6 |
| 20260509141239 | 53 | 210 | 3.0 | 6.0 | 0.02 | 0.12 | 0.11 | 98 | 1005.7 |
| 20260509140732 | 53 | 210 | 3.0 | 6.0 | 0.02 | 0.12 | 0.11 | 97 | 1005.7 |
| 20260509140222 | 53 | 210 | 3.0 | 6.0 | 0.02 | 0.11 | 0.10 | 97 | 1005.7 |
| 20260509135210 | 53 | 210 | 4.0 | 10.0 | 0.02 | 0.11 | 0.10 | 97 | 1005.9 |
| 20260509134700 | 53 | 210 | 4.0 | 6.0 | 0.03 | 0.11 | 0.10 | 97 | 1005.9 |
| 20260509134155 | 53 | 210 | 3.0 | 7.0 | 0.03 | 0.11 | 0.10 | 97 | 1005.9 |
| 20260509132636 | 53 | 212 | 4.0 | 9.0 | 0.02 | 0.10 | 0.09 | 97 | 1005.9 |
| 20260509132130 | 53 | 212 | 3.0 | 10.0 | 0.03 | 0.10 | 0.09 | 97 | 1005.7 |
| 20260509131616 | 53 | 211 | 4.0 | 11.0 | 0.03 | 0.10 | 0.09 | 97 | 1005.7 |
| 20260509130604 | 53 | 214 | 3.0 | 8.0 | 0.03 | 0.10 | 0.09 | 97 | 1005.9 |
| 20260509130104 | 53 | 214 | 3.0 | 8.0 | 0.02 | 0.09 | 0.08 | 97 | 1005.9 |
| 20260509125552 | 53 | 214 | 3.0 | 7.0 | 0.03 | 0.09 | 0.08 | 97 | 1005.9 |
| 20260509125049 | 53 | 214 | 3.0 | 7.0 | 0.03 | 0.09 | 0.08 | 97 | 1005.9 |
| 20260509124549 | 53 | 214 | 3.0 | 6.0 | 0.02 | 0.08 | 0.07 | 97 | 1005.9 |
| 20260509124050 | 52 | 214 | 3.0 | 6.0 | 0.02 | 0.08 | 0.07 | 97 | 1006.0 |
| 20260509123048 | 52 | 214 | 3.0 | 7.0 | 0.02 | 0.08 | 0.07 | 96 | 1006.0 |
| 20260509122544 | 52 | 214 | 4.0 | 10.0 | 0.02 | 0.08 | 0.07 | 96 | 1006.1 |
| 20260509122041 | 52 | 214 | 3.0 | 10.0 | 0.01 | 0.07 | 0.06 | 96 | 1006.1 |
| 20260509121542 | 52 | 214 | 3.0 | 6.0 | 0.02 | 0.07 | 0.06 | 96 | 1006.1 |
| 20260509121043 | 52 | 214 | 2.0 | 6.0 | 0.02 | 0.07 | 0.06 | 96 | 1006.1 |
| 20260509120041 | 52 | 214 | 3.0 | 7.0 | 0.03 | 0.07 | 0.06 | 96 | 1006.1 |
| 20260509115529 | 52 | 214 | 2.0 | 7.0 | 0.02 | 0.06 | 0.05 | 96 | 1006.1 |
| 20260509115033 | 52 | 178 | 2.0 | 5.0 | 0.02 | 0.06 | 0.05 | 95 | 1006.1 |
| 20260509114522 | 52 | 214 | 2.0 | 5.0 | 0.03 | 0.06 | 0.05 | 95 | 1006.1 |
| 20260509113502 | 52 | 214 | 2.0 | 5.0 | 0.03 | 0.06 | 0.05 | 95 | 1006.0 |
| 20260509113002 | 52 | 214 | 2.0 | 4.0 | 0.03 | 0.06 | 0.05 | 95 | 1006.0 |
| 20260509112504 | 52 | 214 | 2.0 | 4.0 | 0.03 | 0.06 | 0.05 | 95 | 1006.0 |
| 20260509111948 | 52 | 214 | 2.0 | 4.0 | 0.03 | 0.06 | 0.05 | 95 | 1006.0 |
| 20260509111440 | 52 | 214 | 1.0 | 4.0 | 0.02 | 0.05 | 0.04 | 94 | 1005.6 |
| 20260509110934 | 52 | 214 | 1.0 | 5.0 | 0.02 | 0.05 | 0.04 | 94 | 1005.6 |
| 20260509105910 | 52 | 214 | 3.0 | 9.0 | 0.01 | 0.04 | 0.03 | 94 | 1005.5 |
| 20260509104905 | 52 | 214 | 3.0 | 6.0 | 0.02 | 0.04 | 0.03 | 94 | 1005.5 |
| 20260509104405 | 52 | 214 | 3.0 | 7.0 | 0.01 | 0.03 | 0.02 | 94 | 1005.4 |
| 20260509103903 | 52 | 214 | 3.0 | 7.0 | 0.01 | 0.03 | 0.02 | 94 | 1005.4 |
| 20260509103353 | 52 | 214 | 3.0 | 5.0 | 0.01 | 0.03 | 0.02 | 94 | 1005.4 |
| 20260509101842 | 52 | 214 | 4.0 | 12.0 | 0.01 | 0.03 | 0.02 | 95 | 1005.4 |
| 20260509101342 | 52 | 214 | 4.0 | 12.0 | 0.01 | 0.03 | 0.02 | 95 | 1005.5 |
| 20260509100828 | 52 | 214 | 5.0 | 12.0 | 0.01 | 0.03 | 0.02 | 95 | 1005.5 |
| 20260509095825 | 52 | 215 | 4.0 | 9.0 | 0.01 | 0.03 | 0.02 | 95 | 1005.6 |
| 20260509094820 | 52 | 215 | 4.0 | 11.0 | 0.00 | 0.02 | 0.01 | 96 | 1005.6 |
| 20260509094317 | 52 | 215 | 3.0 | 9.0 | 0.00 | 0.02 | 0.01 | 96 | 1005.9 |
| 20260509093821 | 52 | 215 | 2.0 | 9.0 | 0.00 | 0.02 | 0.01 | 97 | 1005.9 |
| 20260509093316 | 51 | 217 | 2.0 | 6.0 | 0.00 | 0.02 | 0.01 | 97 | 1005.7 |
| 20260509092812 | 51 | 217 | 3.0 | 7.0 | 0.00 | 0.02 | 0.01 | 97 | 1005.9 |
| 20260509092312 | 51 | 217 | 3.0 | 7.0 | 0.00 | 0.02 | 0.01 | 97 | 1005.9 |
| 20260509091808 | 51 | 217 | 3.0 | 9.0 | 0.00 | 0.02 | 0.01 | 98 | 1005.9 |
| 20260509091302 | 51 | 217 | 3.0 | 9.0 | 0.01 | 0.02 | 0.01 | 98 | 1006.0 |
| 20260509090800 | 51 | 217 | 3.0 | 9.0 | 0.01 | 0.02 | 0.01 | 98 | 1006.0 |
| 20260509085757 | 50 | 217 | 2.0 | 5.0 | 0.01 | 0.02 | 0.01 | 98 | 1006.0 |
| 20260509085252 | 50 | 217 | 1.0 | 4.0 | 0.01 | 0.02 | 0.01 | 98 | 1006.0 |
| 20260509084240 | 50 | 217 | 0.0 | 2.0 | 0.01 | 0.02 | 0.01 | 98 | 1006.1 |
| 20260509083723 | 50 | 217 | 0.0 | 1.0 | 0.01 | 0.02 | 0.01 | 98 | 1006.1 |
| 20260509083221 | 50 | 217 | 0.0 | 1.0 | 0.01 | 0.02 | 0.01 | 98 | 1006.1 |
| 20260509082707 | 50 | 217 | 0.0 | 2.0 | 0.01 | 0.02 | 0.01 | 98 | 1006.1 |
| 20260509081150 | 50 | 217 | 1.0 | 4.0 | 0.00 | 0.01 | 0.00 | 97 | 1006.0 |
| 20260509080649 | 50 | 217 | 1.0 | 4.0 | 0.00 | 0.01 | 0.00 | 97 | 1006.0 |
| 20260509080129 | 50 | 217 | 1.0 | 4.0 | 0.00 | 0.01 | 0.00 | 97 | 1006.0 |
| 20260509075624 | 50 | 217 | 0.0 | 2.0 | 0.00 | 0.01 | 0.00 | 97 | 1005.9 |
| 20260509075121 | 50 | 217 | 1.0 | 4.0 | 0.00 | 0.01 | 0.00 | 97 | 1005.9 |
| 20260509074601 | 50 | 217 | 1.0 | 4.0 | 0.00 | 0.01 | 0.00 | 97 | 1005.9 |
| 20260509074055 | 50 | 217 | 1.0 | 4.0 | 0.00 | 0.01 | 0.00 | 97 | 1005.5 |
| 20260509073553 | 50 | 217 | 1.0 | 4.0 | 0.00 | 0.01 | 0.00 | 97 | 1005.5 |
| 20260509073049 | 50 | 217 | 0.0 | 2.0 | 0.00 | 0.01 | 0.00 | 97 | 1005.5 |
| 20260509072546 | 50 | 217 | 1.0 | 4.0 | 0.00 | 0.01 | 0.00 | 97 | 1005.4 |
| 20260509071516 | 50 | 217 | 0.0 | 2.0 | 0.00 | 0.01 | 0.00 | 97 | 1005.4 |
| 20260509071016 | 50 | 217 | 0.0 | 0.0 | 0.00 | 0.01 | 0.00 | 97 | 1005.3 |
| 20260509070519 | 50 | 217 | 0.0 | 0.0 | 0.00 | 0.01 | 0.00 | 97 | 1005.3 |
| 20260509070012 | 50 | 217 | 0.0 | 0.0 | 0.00 | 0.01 | 0.00 | 97 | 1005.4 |
| 20260509065458 | 50 | 217 | 0.0 | 0.0 | 0.00 | 0.01 | 0.00 | 97 | 1005.4 |
| 20260509064948 | 50 | 217 | 0.0 | 1.0 | 0.00 | 0.01 | 0.00 | 97 | 1005.4 |
| 20260509064441 | 50 | 217 | 0.0 | 1.0 | 0.00 | 0.01 | 0.00 | 97 | 1005.6 |
| 20260509063938 | 50 | 217 | 0.0 | 2.0 | 0.00 | 0.01 | 0.00 | 96 | 1005.6 |
| 20260509062924 | 50 | 217 | 1.0 | 4.0 | 0.00 | 0.01 | 0.00 | 96 | 1006.1 |
| 20260509062419 | 50 | 217 | 1.0 | 4.0 | 0.00 | 0.01 | 0.00 | 96 | 1006.1 |
| 20260509061859 | 50 | 217 | 1.0 | 4.0 | 0.00 | 0.01 | 0.00 | 96 | 1006.1 |
| 20260509061356 | 50 | 217 | 2.0 | 4.0 | 0.00 | 0.01 | 0.00 | 96 | 1006.3 |
| 20260509060849 | 51 | 217 | 2.0 | 4.0 | 0.00 | 0.01 | 0.00 | 96 | 1006.4 |
| 20260509060344 | 51 | 217 | 1.0 | 3.0 | 0.00 | 0.01 | 0.00 | 96 | 1006.3 |
| 20260509055841 | 50 | 217 | 1.0 | 3.0 | 0.00 | 0.01 | 0.00 | 95 | 1006.4 |
| 20260509055341 | 51 | 217 | 2.0 | 4.0 | 0.00 | 0.01 | 0.00 | 95 | 1006.4 |
| 20260509054832 | 51 | 217 | 2.0 | 4.0 | 0.00 | 0.01 | 0.00 | 95 | 1006.4 |
| 20260509054328 | 50 | 217 | 1.0 | 4.0 | 0.00 | 0.01 | 0.00 | 95 | 1006.4 |
| 20260509053830 | 50 | 217 | 0.0 | 0.0 | 0.00 | 0.01 | 0.00 | 95 | 1006.4 |
| 20260509052811 | 50 | 217 | 0.0 | 0.0 | 0.00 | 0.01 | 0.00 | 94 | 1006.4 |
| 20260509052307 | 51 | 217 | 0.0 | 0.0 | 0.00 | 0.01 | 0.00 | 94 | 1006.4 |
| 20260509051810 | 51 | 217 | 0.0 | 0.0 | 0.00 | 0.01 | 0.00 | 94 | 1006.4 |
| 20260509051259 | 51 | 217 | 0.0 | 0.0 | 0.00 | 0.01 | 0.00 | 94 | 1006.4 |
| 20260509050743 | 51 | 217 | 0.0 | 0.0 | 0.00 | 0.01 | 0.00 | 94 | 1006.5 |
| 20260509050239 | 51 | 217 | 0.0 | 0.0 | 0.00 | 0.01 | 0.00 | 94 | 1006.5 |
| 20260509045733 | 51 | 217 | 0.0 | 0.0 | 0.00 | 0.01 | 0.00 | 94 | 1006.5 |
| 20260509045220 | 51 | 217 | 0.0 | 0.0 | 0.00 | 0.01 | 0.00 | 94 | 1006.5 |
| 20260509044703 | 51 | 217 | 0.0 | 0.0 | 0.00 | 0.01 | 0.00 | 94 | 1006.5 |
| 20260509044151 | 51 | 217 | 0.0 | 0.0 | 0.00 | 0.01 | 0.00 | 93 | 1006.6 |
| 20260509043633 | 51 | 217 | 0.0 | 0.0 | 0.00 | 0.01 | 0.00 | 93 | 1006.6 |
| 20260509043123 | 51 | 217 | 0.0 | 1.0 | 0.00 | 0.01 | 0.00 | 93 | 1006.6 |
| 20260509042616 | 51 | 217 | 0.0 | 1.0 | 0.00 | 0.01 | 0.00 | 93 | 1006.9 |
| 20260509042102 | 51 | 217 | 0.0 | 0.0 | 0.00 | 0.01 | 0.00 | 93 | 1006.9 |
| 20260509041039 | 52 | 217 | 0.0 | 0.0 | 0.00 | 0.01 | 0.00 | 93 | 1007.0 |
| 20260509040517 | 52 | 217 | 0.0 | 0.0 | 0.00 | 0.01 | 0.00 | 92 | 1007.0 |
| 20260509040012 | 52 | 217 | 0.0 | 0.0 | 0.00 | 0.01 | 0.00 | 92 | 1007.0 |
| 20260509035436 | 52 | 217 | 0.0 | 0.0 | 0.00 | 0.01 | 0.01 | 92 | 1007.3 |
| 20260509034932 | 52 | 217 | 0.0 | 0.0 | 0.00 | 0.01 | 0.01 | 92 | 1007.3 |
| 20260509034413 | 52 | 217 | 0.0 | 0.0 | 0.00 | 0.01 | 0.01 | 91 | 1007.6 |
| 20260509033912 | 52 | 217 | 0.0 | 0.0 | 0.00 | 0.01 | 0.01 | 91 | 1007.6 |
| 20260509033410 | 52 | 217 | 0.0 | 0.0 | 0.00 | 0.01 | 0.01 | 91 | 1007.6 |
| 20260509032354 | 52 | 217 | 0.0 | 1.0 | 0.00 | 0.01 | 0.01 | 91 | 1007.7 |
| 20260509031837 | 53 | 217 | 0.0 | 1.0 | 0.00 | 0.01 | 0.01 | 90 | 1007.7 |
| 20260509031325 | 53 | 217 | 0.0 | 0.0 | 0.00 | 0.01 | 0.01 | 89 | 1008.1 |
| 20260509030816 | 53 | 217 | 0.0 | 0.0 | 0.00 | 0.01 | 0.01 | 89 | 1008.1 |
| 20260509030303 | 53 | 217 | 0.0 | 0.0 | 0.01 | 0.01 | 0.01 | 89 | 1008.2 |
| 20260509025801 | 53 | 217 | 0.0 | 0.0 | 0.01 | 0.01 | 0.01 | 88 | 1008.2 |
| 20260509025246 | 53 | 217 | 0.0 | 0.0 | 0.01 | 0.01 | 0.01 | 87 | 1008.2 |
| 20260509024735 | 53 | 217 | 0.0 | 0.0 | 0.01 | 0.01 | 0.01 | 87 | 1008.2 |
| 20260509023723 | 53 | 217 | 1.0 | 4.0 | 0.01 | 0.01 | 0.01 | 86 | 1008.2 |
| 20260509023218 | 53 | 217 | 0.0 | 2.0 | 0.01 | 0.01 | 0.01 | 85 | 1008.2 |
| 20260509022714 | 54 | 217 | 0.0 | 0.0 | 0.01 | 0.01 | 0.01 | 84 | 1008.2 |
| 20260509021646 | 54 | 217 | 0.0 | 1.0 | 0.01 | 0.01 | 0.01 | 82 | 1008.2 |
| 20260509021147 | 54 | 217 | 0.0 | 1.0 | 0.01 | 0.01 | 0.01 | 81 | 1008.3 |
| 20260509020647 | 54 | 217 | 1.0 | 3.0 | 0.01 | 0.01 | 0.01 | 80 | 1008.3 |
| 20260509020147 | 54 | 217 | 1.0 | 3.0 | 0.00 | 0.00 | 0.00 | 79 | 1008.3 |
| 20260509015638 | 55 | 217 | 0.0 | 1.0 | 0.00 | 0.00 | 0.00 | 77 | 1008.0 |
| 20260509015122 | 55 | 217 | 0.0 | 1.0 | 0.00 | 0.00 | 0.00 | 76 | 1008.0 |
| 20260509014609 | 55 | 217 | 0.0 | 0.0 | 0.00 | 0.00 | 0.00 | 75 | 1008.0 |
| 20260509014053 | 55 | 217 | 0.0 | 0.0 | 0.00 | 0.00 | 0.00 | 75 | 1007.8 |
| 20260509013550 | 55 | 217 | 1.0 | 3.0 | 0.00 | 0.00 | 0.00 | 74 | 1007.8 |
| 20260509013044 | 55 | 217 | 1.0 | 3.0 | 0.00 | 0.00 | 0.00 | 73 | 1007.8 |
| 20260509012537 | 55 | 217 | 0.0 | 2.0 | 0.00 | 0.00 | 0.00 | 72 | 1007.4 |
| 20260509011027 | 55 | 217 | 0.0 | 4.0 | 0.00 | 0.00 | 0.00 | 70 | 1007.5 |
| 20260509010523 | 55 | 217 | 1.0 | 4.0 | 0.00 | 0.00 | 0.00 | 69 | 1007.5 |
| 20260509010023 | 56 | 217 | 0.0 | 4.0 | 0.00 | 0.00 | 0.00 | 68 | 1007.5 |
| 20260509005523 | 56 | 217 | 0.0 | 1.0 | 0.00 | 0.00 | 0.00 | 68 | 1007.2 |
| 20260509004004 | 56 | 217 | 1.0 | 3.0 | 0.00 | 0.00 | 0.00 | 67 | 1007.0 |
| 20260509003453 | 56 | 217 | 1.0 | 3.0 | 0.00 | 0.00 | 0.00 | 68 | 1007.0 |
| 20260509002448 | 56 | 217 | 2.0 | 5.0 | 0.00 | 0.00 | 0.00 | 67 | 1007.1 |
| 20260509001937 | 56 | 217 | 1.0 | 5.0 | 0.00 | 0.00 | 0.00 | 67 | 1007.1 |
| 20260509000930 | 57 | 217 | 2.0 | 6.0 | 0.00 | 0.00 | 0.00 | 66 | 1007.3 |
| 20260509000414 | 57 | 217 | 1.0 | 6.0 | 0.00 | 0.00 | 0.00 | 66 | 1007.2 |
| 20260508235348 | 57 | 217 | 1.0 | 3.0 | 0.00 | 0.00 | 0.00 | 65 | 1007.4 |
| 20260508234842 | 57 | 217 | 1.0 | 3.0 | 0.00 | 0.00 | 0.00 | 65 | 1007.4 |
| 20260508233838 | 57 | 217 | 0.0 | 3.0 | 0.00 | 0.00 | 0.00 | 64 | 1007.5 |
| 20260508233328 | 58 | 217 | 1.0 | 3.0 | 0.00 | 0.00 | 0.00 | 64 | 1007.5 |
| 20260508232806 | 58 | 217 | 1.0 | 3.0 | 0.00 | 0.00 | 0.00 | 65 | 1007.5 |
| 20260508232251 | 58 | 217 | 1.0 | 3.0 | 0.00 | 0.00 | 0.00 | 64 | 1007.5 |
| 20260508231739 | 58 | 217 | 1.0 | 4.0 | 0.00 | 0.00 | 0.00 | 65 | 1007.5 |
| 20260508230208 | 58 | 217 | 0.0 | 1.0 | 0.00 | 0.00 | 0.00 | 61 | 1007.9 |
| 20260508225659 | 58 | 217 | 0.0 | 1.0 | 0.00 | 0.00 | 0.00 | 60 | 1008.0 |
| 20260508225156 | 59 | 217 | 0.0 | 1.0 | 0.00 | 0.00 | 0.00 | 60 | 1008.1 |
| 20260508224647 | 59 | 217 | 0.0 | 1.0 | 0.00 | 0.00 | 0.00 | 59 | 1008.1 |